QPF
0.03 0.05 0.07 0.08 0.10 0.11 0.13 0.15 0.17 0.16 0.17 0.17 0.12 0.09 0.10 0.08 0.09 0.09 0.06 0.04 0.02 0.01 0.01 0.00 0.00 0.00 0.00 0.00 0.01 0.01 0.02 0.06 0.12 0.19 0.29 0.38 0.44 0.43
0.04 0.05 0.07 0.08 0.10 0.10 0.11 0.14 0.17 0.19 0.19 0.13 0.10 0.10 0.09 0.06 0.05 0.03 0.02 0.01 0.01 0.01 0.01 0.01 0.00 0.00 0.00 0.00 0.00 0.00 0.00 0.01 0.01 0.03 0.07 0.14 0.24 0.34
0.04 0.05 0.08 0.10 0.11 0.10 0.12 0.14 0.16 0.19 0.17 0.11 0.11 0.12 0.10 0.06 0.03 0.01 0.01 0.01 0.01 0.01 0.01 0.01 0.01 0.00 0.00 0.00 0.00 0.00 0.00 0.00 0.00 0.00 0.00 0.01 0.03 0.07
0.04 0.05 0.08 0.12 0.13 0.14 0.14 0.14 0.14 0.17 0.15 0.12 0.12 0.11 0.10 0.06 0.03 0.01 0.00 0.00 0.00 0.00 0.00 0.01 0.01 0.00 0.00 0.00 0.00 0.00 0.00 0.00 0.00 0.00 0.00 0.00 0.00 0.00
0.03 0.06 0.09 0.14 0.16 0.16 0.14 0.12 0.11 0.12 0.11 0.10 0.11 0.11 0.09 0.04 0.02 0.01 0.00 0.00 0.00 0.00 0.00 0.00 0.00 0.00 0.00 0.00 0.00 0.00 0.00 0.00 0.00 0.00 0.00 0.00 0.00 0.00
0.03 0.06 0.12 0.18 0.20 0.17 0.14 0.11 0.09 0.09 0.08 0.08 0.09 0.09 0.06 0.04 0.02 0.01 0.00 0.00 0.00 0.00 0.00 0.00 0.00 0.00 0.00 0.00 0.00 0.00 0.00 0.00 0.00 0.00 0.00 0.00 0.00 0.00
0.03 0.04 0.08 0.15 0.23 0.22 0.16 0.12 0.09 0.08 0.07 0.05 0.04 0.05 0.04 0.03 0.02 0.01 0.00 0.00 0.00 0.00 0.00 0.00 0.00 0.00 0.00 0.00 0.00 0.00 0.00 0.00 0.00 0.00 0.00 0.00 0.00 0.00
0.02 0.03 0.03 0.03 0.06 0.11 0.12 0.11 0.09 0.07 0.05 0.03 0.02 0.02 0.02 0.02 0.01 0.00 0.00 0.00 0.00 0.00 0.00 0.00 0.00 0.00 0.00 0.00 0.00 0.00 0.00 0.00 0.00 0.00 0.00 0.00 0.00 0.00
0.00 0.01 0.01 0.01 0.01 0.02 0.03 0.03 0.03 0.02 0.01 0.01 0.01 0.01 0.01 0.00 0.00 0.00 0.00 0.00 0.00 0.00 0.00 0.00 0.00 0.00 0.00 0.00 0.00 0.00 0.00 0.00 0.00 0.00 0.00 0.00 0.00 0.00
0.00 0.00 0.00 0.00 0.00 0.00 0.00 0.00 0.00 0.00 0.00 0.00 0.00 0.00 0.00 0.00 0.00 0.00 0.00 0.00 0.00 0.00 0.00 0.00 0.00 0.01 0.01 0.01 0.00 0.00 0.00 0.00 0.00 0.00 0.00 0.00 0.00 0.00
0.00 0.00 0.00 0.00 0.00 0.00 0.00 0.00 0.00 0.00 0.00 0.00 0.00 0.00 0.00 0.00 0.00 0.00 0.00 0.00 0.00 0.00 0.00 0.00 0.00 0.01 0.02 0.02 0.00 0.00 0.00 0.00 0.00 0.00 0.00 0.00 0.00 0.00
0.00 0.00 0.00 0.00 0.00 0.00 0.00 0.00 0.00 0.00 0.00 0.00 0.00 0.00 0.00 0.00 0.00 0.00 0.00 0.00 0.00 0.00 0.00 0.00 0.00 0.00 0.01 0.01 0.00 0.00 0.00 0.00 0.00 0.00 0.00 0.00 0.00 0.00
0.00 0.00 0.00 0.00 0.00 0.00 0.00 0.00 0.00 0.00 0.00 0.00 0.00 0.00 0.00 0.00 0.00 0.00 0.00 0.00 0.00 0.00 0.00 0.00 0.00 0.00 0.00 0.00 0.00 0.00 0.00 0.00 0.00 0.00 0.00 0.00 0.00 0.00
0.00 0.00 0.00 0.00 0.00 0.00 0.00 0.00 0.00 0.00 0.00 0.00 0.00 0.00 0.00 0.00 0.00 0.00 0.00 0.00 0.00 0.00 0.00 0.00 0.00 0.00 0.00 0.00 0.00 0.00 0.00 0.00 0.00 0.00 0.00 0.00 0.00 0.00
0.00 0.00 0.00 0.00 0.00 0.00 0.00 0.00 0.00 0.00 0.00 0.00 0.00 0.00 0.00 0.00 0.00 0.00 0.00 0.00 0.00 0.00 0.00 0.00 0.00 0.00 0.00 0.00 0.00 0.00 0.00 0.00 0.00 0.00 0.00 0.00 0.00 0.00
0.00 0.00 0.00 0.00 0.00 0.00 0.00 0.00 0.00 0.00 0.00 0.00 0.00 0.00 0.00 0.00 0.00 0.00 0.00 0.00 0.00 0.00 0.00 0.00 0.00 0.00 0.00 0.00 0.00 0.00 0.00 0.00 0.00 0.00 0.00 0.00 0.00 0.00
0.00 0.00 0.00 0.00 0.00 0.00 0.00 0.00 0.00 0.00 0.00 0.00 0.00 0.00 0.00 0.00 0.00 0.00 0.00 0.00 0.00 0.00 0.00 0.00 0.00 0.00 0.00 0.00 0.00 0.00 0.00 0.00 0.00 0.00 0.00 0.00 0.00 0.00
0.00 0.00 0.00 0.00 0.00 0.00 0.00 0.00 0.00 0.00 0.00 0.00 0.00 0.00 0.00 0.00 0.00 0.00 0.00 0.00 0.00 0.00 0.00 0.00 0.00 0.00 0.00 0.00 0.00 0.00 0.00 0.00 0.00 0.00 0.00 0.00 0.00 0.00
0.00 0.00 0.00 0.00 0.00 0.00 0.00 0.00 0.00 0.00 0.00 0.00 0.00 0.00 0.00 0.00 0.00 0.00 0.00 0.00 0.00 0.00 0.00 0.00 0.00 0.00 0.00 0.00 0.00 0.00 0.00 0.00 0.00 0.00 0.00 0.00 0.00 0.00
0.00 0.00 0.00 0.00 0.00 0.00 0.00 0.00 0.00 0.00 0.00 0.00 0.00 0.00 0.00 0.00 0.00 0.00 0.00 0.00 0.00 0.00 0.00 0.00 0.00 0.00 0.00 0.00 0.00 0.00 0.00 0.00 0.00 0.00 0.00 0.00 0.00 0.00
0.00 0.00 0.00 0.00 0.00 0.00 0.00 0.00 0.00 0.00 0.00 0.00 0.00 0.00 0.00 0.00 0.00 0.00 0.00 0.00 0.00 0.00 0.00 0.00 0.00 0.00 0.00 0.00 0.00 0.00 0.00 0.00 0.00 0.00 0.00 0.00 0.00 0.00
0.00 0.00 0.00 0.00 0.00 0.00 0.00 0.00 0.00 0.00 0.00 0.00 0.00 0.00 0.00 0.00 0.00 0.00 0.00 0.00 0.00 0.00 0.00 0.00 0.00 0.00 0.00 0.00 0.00 0.00 0.00 0.00 0.00 0.00 0.00 0.00 0.00 0.00
0.00 0.00 0.00 0.00 0.00 0.00 0.00 0.00 0.00 0.00 0.00 0.00 0.00 0.00 0.00 0.00 0.00 0.00 0.00 0.00 0.00 0.00 0.00 0.00 0.00 0.00 0.00 0.00 0.00 0.00 0.00 0.00 0.00 0.00 0.00 0.00 0.00 0.00
MSLP
1006.38 1006.05 1005.78 1005.61 1005.52 1005.53 1005.62 1005.80 1006.05 1006.36 1006.71 1007.07 1007.43 1007.78 1008.10 1008.39 1008.66 1008.90 1009.13 1009.35 1009.55 1009.74 1009.91 1010.05 1010.15 1010.21 1010.22 1010.18 1010.11 1010.02 1009.93 1009.86 1009.82 1009.83 1009.90 1010.02 1010.18 1010.40
1005.91 1005.54 1005.26 1005.08 1005.01 1005.06 1005.21 1005.46 1005.79 1006.18 1006.60 1007.04 1007.46 1007.86 1008.22 1008.55 1008.84 1009.12 1009.37 1009.63 1009.87 1010.11 1010.34 1010.53 1010.69 1010.79 1010.83 1010.82 1010.75 1010.64 1010.52 1010.40 1010.30 1010.24 1010.23 1010.27 1010.37 1010.50
1005.57 1005.20 1004.91 1004.73 1004.67 1004.73 1004.91 1005.20 1005.58 1006.01 1006.48 1006.96 1007.42 1007.85 1008.24 1008.60 1008.91 1009.21 1009.50 1009.78 1010.07 1010.37 1010.65 1010.91 1011.14 1011.31 1011.41 1011.45 1011.42 1011.34 1011.23 1011.09 1010.96 1010.86 1010.79 1010.76 1010.78 1010.84
1005.46 1005.09 1004.81 1004.62 1004.56 1004.63 1004.82 1005.11 1005.50 1005.95 1006.43 1006.91 1007.38 1007.82 1008.21 1008.57 1008.89 1009.20 1009.50 1009.81 1010.13 1010.47 1010.81 1011.14 1011.44 1011.69 1011.88 1011.99 1012.04 1012.01 1011.93 1011.82 1011.69 1011.56 1011.45 1011.37 1011.32 1011.29
1005.57 1005.24 1004.98 1004.82 1004.76 1004.82 1004.99 1005.27 1005.63 1006.05 1006.50 1006.95 1007.39 1007.80 1008.17 1008.50 1008.81 1009.11 1009.41 1009.72 1010.06 1010.43 1010.81 1011.20 1011.57 1011.90 1012.17 1012.38 1012.51 1012.56 1012.54 1012.47 1012.36 1012.23 1012.10 1011.97 1011.86 1011.76
1005.87 1005.61 1005.40 1005.27 1005.22 1005.28 1005.43 1005.67 1005.98 1006.34 1006.73 1007.12 1007.51 1007.86 1008.18 1008.47 1008.74 1009.00 1009.28 1009.58 1009.92 1010.29 1010.70 1011.12 1011.54 1011.94 1012.29 1012.58 1012.79 1012.92 1012.98 1012.96 1012.89 1012.77 1012.63 1012.47 1012.31 1012.15
1006.26 1006.10 1005.97 1005.89 1005.87 1005.93 1006.06 1006.25 1006.50 1006.80 1007.11 1007.42 1007.73 1008.01 1008.26 1008.50 1008.72 1008.94 1009.18 1009.46 1009.77 1010.14 1010.54 1010.97 1011.41 1011.85 1012.25 1012.60 1012.89 1013.09 1013.21 1013.25 1013.21 1013.12 1012.98 1012.80 1012.61 1012.40
1006.62 1006.58 1006.55 1006.54 1006.57 1006.65 1006.77 1006.93 1007.13 1007.35 1007.58 1007.82 1008.05 1008.26 1008.45 1008.63 1008.80 1008.98 1009.18 1009.42 1009.70 1010.03 1010.40 1010.82 1011.26 1011.71 1012.13 1012.52 1012.84 1013.09 1013.26 1013.34 1013.34 1013.26 1013.13 1012.95 1012.74 1012.51
1006.85 1006.93 1007.01 1007.10 1007.19 1007.31 1007.43 1007.58 1007.74 1007.91 1008.09 1008.26 1008.43 1008.59 1008.73 1008.87 1009.00 1009.14 1009.31 1009.50 1009.74 1010.03 1010.37 1010.75 1011.15 1011.58 1011.99 1012.38 1012.71 1012.98 1013.17 1013.28 1013.30 1013.24 1013.12 1012.94 1012.72 1012.48
1006.88 1007.08 1007.28 1007.46 1007.64 1007.80 1007.96 1008.11 1008.26 1008.41 1008.56 1008.70 1008.83 1008.96 1009.08 1009.19 1009.31 1009.43 1009.57 1009.73 1009.93 1010.18 1010.46 1010.79 1011.15 1011.52 1011.90 1012.26 1012.58 1012.84 1013.02 1013.14 1013.16 1013.11 1013.00 1012.82 1012.61 1012.37
1006.71 1007.03 1007.33 1007.61 1007.87 1008.10 1008.30 1008.48 1008.65 1008.80 1008.95 1009.08 1009.22 1009.34 1009.46 1009.58 1009.69 1009.81 1009.94 1010.08 1010.25 1010.45 1010.69 1010.96 1011.26 1011.57 1011.89 1012.20 1012.47 1012.70 1012.87 1012.96 1012.99 1012.94 1012.82 1012.65 1012.44 1012.21
1006.44 1006.85 1007.24 1007.61 1007.93 1008.23 1008.48 1008.70 1008.90 1009.08 1009.25 1009.40 1009.55 1009.70 1009.84 1009.98 1010.11 1010.23 1010.36 1010.50 1010.64 1010.81 1011.00 1011.22 1011.45 1011.71 1011.96 1012.21 1012.43 1012.61 1012.74 1012.81 1012.81 1012.75 1012.64 1012.48 1012.28 1012.06
1006.18 1006.65 1007.10 1007.52 1007.91 1008.25 1008.55 1008.81 1009.05 1009.26 1009.47 1009.66 1009.84 1010.02 1010.19 1010.35 1010.50 1010.65 1010.78 1010.91 1011.05 1011.19 1011.34 1011.51 1011.70 1011.89 1012.08 1012.27 1012.43 1012.57 1012.65 1012.69 1012.67 1012.60 1012.48 1012.32 1012.14 1011.93
1006.02 1006.52 1007.00 1007.45 1007.86 1008.23 1008.57 1008.87 1009.14 1009.39 1009.63 1009.86 1010.08 1010.29 1010.49 1010.67 1010.84 1010.99 1011.13 1011.26 1011.39 1011.51 1011.64 1011.78 1011.93 1012.07 1012.22 1012.36 1012.47 1012.56 1012.60 1012.61 1012.57 1012.48 1012.36 1012.21 1012.03 1011.83
1006.02 1006.51 1006.98 1007.43 1007.85 1008.23 1008.58 1008.90 1009.20 1009.49 1009.76 1010.02 1010.27 1010.50 1010.71 1010.91 1011.09 1011.24 1011.38 1011.51 1011.63 1011.75 1011.87 1011.98 1012.11 1012.23 1012.34 1012.44 1012.52 1012.57 1012.58 1012.56 1012.50 1012.40 1012.28 1012.13 1011.96 1011.78
1006.14 1006.60 1007.04 1007.46 1007.86 1008.23 1008.58 1008.92 1009.24 1009.55 1009.85 1010.13 1010.39 1010.64 1010.86 1011.06 1011.23 1011.38 1011.52 1011.65 1011.76 1011.88 1011.99 1012.11 1012.22 1012.33 1012.43 1012.51 1012.57 1012.59 1012.58 1012.54 1012.46 1012.36 1012.23 1012.08 1011.93 1011.75
1006.30 1006.71 1007.09 1007.47 1007.83 1008.18 1008.54 1008.88 1009.22 1009.56 1009.88 1010.18 1010.46 1010.71 1010.93 1011.12 1011.29 1011.43 1011.56 1011.68 1011.80 1011.92 1012.04 1012.16 1012.29 1012.40 1012.50 1012.57 1012.62 1012.63 1012.60 1012.54 1012.45 1012.34 1012.21 1012.07 1011.91 1011.74
1006.36 1006.70 1007.03 1007.35 1007.68 1008.03 1008.38 1008.75 1009.11 1009.48 1009.83 1010.15 1010.45 1010.71 1010.93 1011.11 1011.27 1011.40 1011.53 1011.65 1011.78 1011.91 1012.05 1012.19 1012.33 1012.46 1012.56 1012.64 1012.68 1012.68 1012.64 1012.57 1012.47 1012.34 1012.20 1012.06 1011.90 1011.73
1006.21 1006.48 1006.76 1007.05 1007.36 1007.70 1008.08 1008.48 1008.89 1009.29 1009.68 1010.04 1010.36 1010.63 1010.86 1011.05 1011.20 1011.34 1011.47 1011.60 1011.74 1011.89 1012.06 1012.22 1012.38 1012.53 1012.64 1012.72 1012.75 1012.74 1012.69 1012.60 1012.48 1012.35 1012.20 1012.04 1011.87 1011.70
1005.77 1006.00 1006.24 1006.52 1006.84 1007.21 1007.62 1008.07 1008.54 1009.00 1009.44 1009.85 1010.20 1010.50 1010.75 1010.95 1011.11 1011.26 1011.41 1011.56 1011.72 1011.90 1012.08 1012.27 1012.45 1012.60 1012.72 1012.80 1012.82 1012.79 1012.72 1012.61 1012.48 1012.32 1012.15 1011.98 1011.80 1011.61
1005.09 1005.29 1005.53 1005.82 1006.17 1006.59 1007.07 1007.58 1008.12 1008.64 1009.14 1009.60 1009.99 1010.32 1010.59 1010.82 1011.01 1011.18 1011.34 1011.52 1011.71 1011.91 1012.12 1012.32 1012.51 1012.67 1012.78 1012.84 1012.84 1012.79 1012.70 1012.57 1012.40 1012.23 1012.04 1011.85 1011.65 1011.45
1004.24 1004.45 1004.72 1005.05 1005.46 1005.95 1006.49 1007.08 1007.68 1008.27 1008.83 1009.32 1009.76 1010.12 1010.42 1010.66 1010.88 1011.07 1011.26 1011.46 1011.67 1011.89 1012.11 1012.32 1012.51 1012.66 1012.75 1012.79 1012.77 1012.69 1012.57 1012.41 1012.23 1012.04 1011.84 1011.63 1011.42 1011.20
1003.38 1003.64 1003.96 1004.35 1004.83 1005.39 1006.00 1006.65 1007.31 1007.94 1008.53 1009.06 1009.51 1009.89 1010.21 1010.47 1010.70 1010.91 1011.12 1011.34 1011.56 1011.79 1012.02 1012.22 1012.39 1012.52 1012.59 1012.60 1012.55 1012.45 1012.30 1012.13 1011.93 1011.73 1011.53 1011.32 1011.11 1010.88
Thickness
5684 5684 5684 5687 5690 5693 5694 5694 5692 5689 5687 5687 5685 5685 5684 5682 5679 5680 5680 5680 5682 5682 5682 5682 5681 5680 5680 5683 5686 5691 5696 5701 5705 5709 5711 5713 5713 5713
5681 5680 5680 5683 5685 5688 5690 5691 5690 5687 5683 5680 5678 5675 5674 5672 5670 5670 5670 5671 5673 5674 5673 5672 5671 5671 5671 5672 5675 5679 5683 5687 5691 5695 5698 5699 5700 5701
5677 5676 5676 5677 5678 5680 5683 5684 5684 5682 5676 5669 5665 5663 5662 5661 5661 5662 5664 5664 5663 5663 5663 5662 5661 5660 5661 5662 5664 5668 5672 5675 5678 5682 5684 5686 5687 5689
5671 5670 5670 5671 5672 5673 5674 5675 5676 5675 5671 5660 5653 5652 5652 5653 5654 5656 5659 5657 5654 5652 5652 5651 5650 5650 5651 5652 5654 5658 5661 5664 5667 5670 5672 5675 5676 5677
5663 5661 5661 5662 5662 5663 5665 5666 5666 5665 5660 5653 5646 5645 5645 5646 5647 5650 5651 5650 5648 5643 5642 5640 5640 5640 5640 5642 5644 5647 5650 5653 5656 5659 5661 5663 5665 5666
5655 5653 5652 5651 5651 5652 5653 5653 5653 5650 5647 5643 5640 5638 5639 5641 5644 5645 5643 5644 5644 5642 5637 5634 5632 5633 5634 5635 5638 5640 5642 5644 5646 5649 5650 5653 5655 5657
5648 5645 5643 5642 5640 5641 5641 5640 5640 5638 5636 5635 5635 5634 5634 5637 5641 5643 5639 5638 5637 5639 5637 5636 5634 5634 5633 5630 5631 5632 5634 5635 5637 5638 5640 5642 5644 5646
5640 5638 5636 5634 5631 5631 5630 5629 5629 5628 5627 5629 5631 5631 5631 5634 5637 5638 5636 5635 5632 5635 5635 5633 5634 5631 5628 5624 5620 5622 5624 5626 5627 5628 5630 5632 5634 5635
5633 5631 5631 5627 5625 5624 5621 5620 5619 5620 5623 5626 5625 5625 5625 5627 5629 5632 5632 5634 5630 5629 5631 5627 5627 5623 5619 5612 5612 5613 5614 5616 5616 5617 5619 5620 5622 5623
5626 5623 5621 5620 5619 5617 5616 5615 5613 5611 5616 5618 5617 5617 5618 5620 5623 5624 5623 5622 5621 5623 5626 5623 5621 5618 5614 5608 5605 5605 5605 5605 5605 5606 5607 5608 5610 5612
5618 5616 5614 5612 5607 5609 5610 5607 5604 5602 5601 5602 5603 5603 5605 5609 5613 5618 5618 5621 5619 5618 5621 5620 5617 5615 5610 5606 5601 5599 5599 5598 5597 5596 5596 5597 5599 5602
5608 5605 5603 5603 5598 5601 5604 5602 5599 5597 5597 5596 5596 5597 5601 5603 5606 5613 5617 5620 5617 5613 5611 5614 5613 5612 5606 5603 5602 5599 5596 5594 5592 5590 5588 5587 5586 5590
5602 5601 5596 5589 5590 5592 5596 5597 5594 5594 5594 5594 5594 5596 5598 5600 5604 5606 5610 5616 5615 5610 5607 5607 5608 5608 5608 5602 5598 5595 5593 5591 5588 5585 5583 5578 5575 5573
5597 5595 5586 5580 5581 5584 5586 5583 5585 5589 5592 5592 5593 5594 5595 5596 5596 5597 5598 5599 5600 5598 5597 5599 5602 5601 5603 5601 5596 5592 5588 5584 5580 5578 5575 5570 5567 5561
5588 5580 5575 5572 5572 5574 5572 5574 5579 5586 5587 5588 5589 5590 5591 5589 5589 5589 5589 5589 5589 5590 5590 5591 5595 5594 5595 5592 5589 5585 5582 5578 5573 5568 5566 5563 5558 5554
5572 5565 5563 5565 5569 5566 5565 5570 5577 5582 5584 5585 5585 5585 5584 5584 5587 5589 5590 5590 5589 5586 5584 5584 5585 5586 5586 5582 5582 5578 5574 5570 5566 5561 5558 5557 5554 5548
5563 5564 5565 5566 5567 5567 5568 5571 5573 5575 5579 5580 5581 5581 5582 5583 5584 5586 5587 5590 5589 5586 5583 5581 5579 5578 5575 5575 5575 5571 5568 5565 5561 5556 5553 5553 5550 5546
5560 5564 5566 5568 5569 5569 5569 5570 5572 5575 5577 5578 5579 5580 5580 5580 5580 5581 5583 5585 5583 5582 5581 5580 5579 5576 5573 5568 5562 5562 5562 5558 5555 5551 5549 5547 5545 5541
5559 5564 5567 5569 5570 5571 5572 5573 5574 5574 5574 5576 5577 5577 5578 5577 5577 5577 5578 5578 5578 5578 5576 5575 5574 5574 5575 5572 5558 5551 5551 5548 5547 5545 5543 5540 5538 5535
5561 5566 5569 5570 5571 5572 5573 5574 5573 5571 5571 5573 5574 5574 5575 5575 5575 5574 5574 5573 5573 5572 5571 5569 5567 5564 5562 5560 5557 5552 5542 5542 5539 5537 5536 5534 5532 5527
5562 5568 5571 5571 5572 5572 5573 5573 5572 5570 5570 5571 5571 5571 5572 5573 5573 5573 5570 5558 5565 5567 5566 5562 5554 5547 5549 5550 5553 5552 5546 5536 5532 5529 5528 5528 5525 5523
5564 5570 5572 5573 5572 5572 5572 5571 5571 5569 5567 5569 5569 5569 5570 5571 5569 5568 5567 5563 5562 5562 5558 5555 5547 5546 5547 5547 5546 5546 5544 5537 5533 5527 5522 5517 5515 5513
5568 5572 5573 5573 5573 5572 5572 5571 5570 5569 5568 5568 5569 5567 5568 5568 5567 5566 5563 5561 5559 5555 5552 5550 5546 5543 5543 5542 5541 5540 5537 5534 5534 5529 5525 5515 5509 5504